Aurora, CO

1:35 PM MST on January 23, 2018 (GMT -0700)
Buckley Air Force Base

Weather History for KBKF - June, 2013

Change the Weather History Date:

Tuesday, June 25, 2013

  Actual Average Record
Temperature  
Mean Temperature 76 °F -  
Max Temperature 89 °F 82 °F 102 °F (2012)
Min Temperature 62 °F 54 °F 46 °F (2003)
Cooling Degree Days 10    
Growing Degree Days 26 (Base 50)    
Moisture  
Dew Point 33 °F    
Average Humidity 23    
Maximum Humidity 37    
Minimum Humidity 11    
Precipitation  
Precipitation 0.00 in - - ()
Sea Level Pressure  
Sea Level Pressure 29.74 in    
Wind  
Wind Speed 6 mph (WSW)    
Max Wind Speed 16 mph    
Max Gust Speed -    
Averages and records for this station are not official NWS values.
T = Trace of Precipitation, MM = Missing Value Source: NWS Daily Summary

Daily Weather History Graph

Daily Weather History Graph

Search for Another Location

Airport or City:

Trip Planner

Search our weather history database for the weather conditions in past years. The results will help you decide how hot, cold, wet, or windy it might be!

Date:

Astronomy

Jun. 25, 2013 Rise Set
Actual Time 5:32 AM MDT 8:30 PM MDT
Civil Twilight 4:59 AM MDT 9:03 PM MDT
Nautical Twilight 4:18 AM MDT 9:44 PM MDT
Astronomical Twilight 3:30 AM MDT 10:32 PM MDT
Moon 10:18 PM MDT (6/25) 8:15 AM MDT (6/25)
Length of Visible Light 16h 03m
Length of Day
14h 58m
Waning Gibbous, 92% of the Moon is Illuminated
Jun 25
Waning Gibbous
Jun 29
Last Quarter
Jul 8
New
Jul 15
First Quarter
Jul 22
Full

Hourly Weather History & Observations

Time (MDT) Temp. Dew Point Humidity Pressure Visibility Wind Dir Wind Speed Gust Speed Precip Events Conditions
12:55 AM 68.0 °F 37.4 °F 33% 29.64 in 25.0 mi SW 4.6 mph - N/A   Mostly Cloudy
1:55 AM 68.0 °F 41.0 °F 37% 29.64 in 25.0 mi SSW 4.6 mph - N/A   Mostly Cloudy
2:55 AM 66.2 °F 39.2 °F 37% 29.66 in 25.0 mi SW 3.5 mph - N/A   Mostly Cloudy
3:55 AM 66.2 °F 35.6 °F 32% 29.66 in 25.0 mi NNW 6.9 mph - N/A   Mostly Cloudy
4:55 AM 62.6 °F 32.0 °F 32% 29.67 in 25.0 mi SW 6.9 mph - N/A   Scattered Clouds
5:55 AM 62.6 °F 28.4 °F 27% 29.68 in 25.0 mi South 6.9 mph - N/A   Partly Cloudy
6:55 AM 66.2 °F 32.0 °F 28% 29.70 in 25.0 mi SW 5.8 mph - N/A   Scattered Clouds
7:55 AM 71.6 °F 32.0 °F 23% 29.73 in 25.0 mi SSE 3.5 mph - N/A   Scattered Clouds
8:55 AM 73.4 °F 32.0 °F 22% 29.76 in 25.0 mi West 10.4 mph - N/A   Scattered Clouds
9:55 AM 77.0 °F 32.0 °F 19% 29.76 in 25.0 mi NW 8.1 mph - N/A   Scattered Clouds
10:55 AM 78.8 °F 28.4 °F 16% 29.78 in 25.0 mi WNW 4.6 mph - N/A   Scattered Clouds
11:55 AM 84.2 °F 23.0 °F 11% 29.76 in 25.0 mi SW 6.9 mph - N/A   Scattered Clouds
12:55 PM 84.2 °F 26.6 °F 12% 29.76 in 25.0 mi North 3.5 mph - N/A   Scattered Clouds
1:55 PM 86.0 °F 26.6 °F 12% 29.75 in 25.0 mi NE 5.8 mph - N/A   Scattered Clouds
2:55 PM 87.8 °F 28.4 °F 12% 29.73 in 25.0 mi NW 6.9 mph - N/A   Scattered Clouds
3:55 PM 89.6 °F 32.0 °F 13% 29.72 in 25.0 mi NNW 9.2 mph - N/A   Scattered Clouds
4:55 PM 89.6 °F 32.0 °F 13% 29.74 in 25.0 mi NNW 3.5 mph - N/A   Scattered Clouds
5:55 PM 89.6 °F 32.0 °F 13% 29.73 in 25.0 mi NE 10.4 mph - N/A   Scattered Clouds
6:55 PM 86.0 °F 33.8 °F 15% 29.75 in 25.0 mi NNE 8.1 mph - N/A   Scattered Clouds
7:55 PM 80.6 °F 37.4 °F 21% 29.77 in 25.0 mi ENE 16.1 mph - N/A   Scattered Clouds
8:55 PM 77.0 °F 37.4 °F 24% 29.79 in 25.0 mi ESE 6.9 mph - N/A   Scattered Clouds
9:55 PM 69.8 °F 39.2 °F 33% 29.83 in 25.0 mi SE 8.1 mph - N/A   Scattered Clouds
10:55 PM 68.0 °F 37.4 °F 33% 29.85 in 25.0 mi SSE 10.4 mph - N/A   Partly Cloudy
11:55 PM 69.8 °F 37.4 °F 31% 29.86 in 25.0 mi WSW 4.6 mph - N/A   Partly Cloudy